Temp
61 61 61 61 61 61 61 61 62 62 62 63 63 63 63 63 63 66 67 75 74 72 73 77 78 77 74 68 71 70 57 50 57 60 64 69 70 80 82 79 80 79 78 79 80
60 61 61 61 61 60 61 61 62 62 62 62 63 63 63 62 66 68 78 76 75 74 77 75 74 75 67 67 69 64 55 56 66 63 62 68 69 73 76 74 73 76 80 84 81
60 60 60 60 60 60 61 61 61 62 62 62 62 62 62 62 66 73 79 76 75 75 75 74 74 70 63 64 67 61 61 66 67 69 68 69 72 75 71 66 70 72 75 79 75
60 60 60 60 60 60 61 61 62 62 62 62 62 62 62 66 55 78 80 77 76 75 76 74 70 66 61 61 69 62 70 71 69 71 70 66 71 72 71 70 77 78 79 77 72
59 59 60 60 60 60 60 61 61 61 61 61 62 63 67 65 68 84 82 80 80 78 76 70 66 62 60 63 68 63 66 72 73 67 65 72 67 67 69 76 79 80 79 74 70
59 59 59 59 59 60 60 60 60 60 61 62 63 63 68 59 81 87 85 84 82 75 73 70 68 73 65 64 66 67 67 68 66 67 67 67 67 68 75 78 77 78 76 72 71
58 58 59 59 59 60 60 59 59 59 61 63 64 72 67 69 82 83 78 76 81 81 77 76 74 73 66 67 70 70 61 66 66 67 68 70 67 66 75 76 75 76 73 70 70
58 58 58 59 59 60 60 59 59 60 62 63 66 67 64 81 80 83 79 82 85 83 81 82 79 69 66 68 70 63 61 52 63 69 68 68 57 69 74 71 71 74 73 70 69
58 57 58 59 59 60 59 59 60 62 63 65 64 64 65 82 80 87 83 83 82 83 81 89 75 67 70 59 54 56 50 51 61 64 65 63 57 71 71 70 70 71 68 69 67
58 57 57 58 59 59 58 59 63 64 74 77 79 64 71 75 81 86 84 86 80 79 77 71 65 60 57 54 47 50 50 55 55 64 64 58 60 65 69 68 69 65 68 66 66
58 57 57 58 58 58 61 68 67 66 67 67 71 72 77 81 84 81 85 81 77 71 61 65 59 53 59 61 63 60 57 54 59 63 59 55 57 62 67 67 66 64 64 64 65
58 57 57 57 58 58 57 63 70 73 64 75 77 77 82 82 76 81 84 71 69 62 65 60 54 65 70 67 64 60 55 53 59 64 60 58 58 62 66 65 64 63 62 63 63
57 56 57 57 57 59 64 71 77 71 61 72 78 77 79 79 75 76 78 73 66 64 62 56 64 72 69 63 62 55 54 52 53 59 59 56 53 57 61 62 62 62 64 63 61
57 56 56 56 64 66 68 78 75 73 52 64 71 79 80 77 71 84 82 73 68 62 64 60 68 68 63 62 61 52 62 61 59 52 44 56 40 50 54 55 57 57 57 57 59
57 57 56 54 63 66 76 73 71 70 41 69 72 82 79 73 74 75 81 73 63 64 64 60 62 61 61 62 65 57 64 58 57 49 45 50 41 47 52 50 52 54 57 56 56
57 57 55 62 59 69 74 71 72 53 44 65 74 71 68 71 73 75 74 75 72 66 65 63 71 68 64 68 66 65 58 53 48 44 37 45 44 41 45 50 51 53 55 57 57
57 56 55 69 68 73 71 66 51 45 69 64 65 69 66 67 70 71 68 62 57 50 51 60 61 67 70 61 63 58 45 34 36 34 35 48 43 43 52 54 54 53 53 54 55
56 54 58 72 70 70 66 58 43 61 63 71 69 68 63 68 66 68 64 57 63 58 50 46 47 61 68 59 53 50 47 36 30 30 36 47 38 45 56 57 57 56 54 53 52
54 62 65 72 72 68 59 46 50 60 68 66 67 61 60 67 66 63 60 58 60 58 49 46 50 63 67 64 60 52 45 51 41 38 33 39 45 52 54 54 54 52 52 51 50
55 61 65 75 73 64 53 49 58 69 70 67 55 60 53 59 59 58 58 62 61 63 57 51 44 58 64 65 61 54 56 41 37 30 27 36 39 41 45 49 51 49 48 50 50
58 60 71 73 69 57 48 52 64 72 71 64 58 56 57 56 57 56 56 60 64 61 59 51 46 50 56 51 49 49 45 44 41 36 30 27 34 48 48 50 48 46 49 49 48
52 55 71 70 56 50 51 59 63 68 70 67 64 60 57 57 55 55 55 57 63 62 52 51 44 38 46 57 59 54 47 43 30 34 36 30 33 53 48 49 49 48 52 50 50
49 53 68 67 48 48 56 63 66 66 64 63 61 61 60 54 48 56 57 63 63 58 52 50 38 29 40 46 52 48 51 46 42 35 35 28 34 51 51 49 49 47 50 52 52
52 50 55 55 54 50 50 55 57 67 66 65 61 61 56 53 55 52 55 60 60 57 58 52 39 38 32 39 44 42 48 50 41 26 37 37 39 44 46 46 47 47 48 48 50
52 49 51 45 50 49 49 54 55 56 63 63 57 57 53 46 49 48 53 56 57 58 52 46 38 41 44 48 48 47 47 49 44 43 35 39 39 41 44 45 46 49 53 49 49
49 47 49 47 51 52 50 51 56 59 57 55 53 56 52 45 46 44 48 47 47 50 45 45 35 40 39 48 48 44 47 48 49 49 46 43 40 46 47 49 50 48 48 47 48
51 52 49 46 48 47 48 54 58 58 60 61 57 53 49 52 53 53 52 51 51 47 43 41 36 33 33 43 42 33 45 47 47 46 45 35 40 45 44 47 45 44 46 47 48
MSLP
1016.64 1016.44 1016.24 1016.03 1015.83 1015.62 1015.40 1015.22 1015.08 1014.93 1014.75 1014.53 1014.18 1013.77 1013.43 1013.03 1012.23 1012.27 1011.78 1010.23 1010.10 1010.13 1010.17 1010.00 1009.72 1009.94 1010.09 1010.31 1009.83 1010.07 1011.06 1011.39 1010.35 1009.58 1008.85 1008.10 1007.58 1007.14 1007.44 1007.83 1008.20 1008.42 1009.04 1009.20 1009.07
1016.58 1016.34 1016.14 1015.95 1015.71 1015.49 1015.27 1015.09 1014.96 1014.86 1014.69 1014.38 1013.96 1013.59 1013.32 1013.07 1012.56 1011.58 1009.68 1009.56 1009.84 1010.02 1009.94 1010.20 1010.15 1010.16 1010.37 1010.00 1009.55 1010.01 1010.75 1010.38 1009.58 1009.14 1008.65 1008.17 1007.83 1007.63 1008.21 1008.46 1008.88 1008.83 1009.03 1009.08 1009.49
1016.60 1016.36 1016.12 1015.89 1015.65 1015.40 1015.18 1015.00 1014.85 1014.74 1014.58 1014.22 1013.81 1013.40 1013.16 1013.00 1012.41 1010.29 1009.20 1009.52 1009.64 1009.93 1010.10 1010.29 1010.25 1010.37 1010.14 1009.67 1009.30 1009.40 1009.85 1009.62 1009.17 1008.75 1008.63 1008.48 1008.16 1008.03 1008.52 1009.03 1008.91 1009.15 1009.28 1009.56 1010.29
1016.52 1016.28 1016.05 1015.82 1015.56 1015.30 1015.04 1014.82 1014.67 1014.58 1014.44 1014.16 1013.73 1013.24 1012.91 1012.77 1012.13 1009.55 1009.17 1009.21 1009.33 1009.68 1009.88 1010.02 1010.11 1009.96 1009.74 1009.54 1008.57 1008.92 1009.08 1008.97 1008.75 1008.42 1008.64 1008.68 1008.53 1008.48 1008.51 1008.80 1008.87 1008.86 1009.05 1009.65 1010.75
1016.48 1016.20 1015.93 1015.70 1015.46 1015.20 1014.95 1014.67 1014.48 1014.42 1014.31 1014.06 1013.68 1013.21 1012.79 1012.48 1011.34 1008.90 1008.84 1008.94 1009.22 1009.44 1009.54 1009.70 1009.94 1009.88 1009.45 1008.69 1008.34 1008.59 1008.81 1008.69 1008.47 1008.37 1008.54 1008.53 1008.61 1008.70 1008.58 1008.75 1008.44 1008.66 1008.95 1009.88 1010.85
1016.37 1016.15 1015.90 1015.61 1015.32 1015.04 1014.79 1014.57 1014.38 1014.22 1014.08 1013.84 1013.52 1013.10 1012.83 1011.80 1009.63 1008.86 1008.76 1008.81 1008.88 1009.16 1009.12 1009.44 1009.49 1009.13 1009.27 1008.72 1008.47 1008.67 1008.95 1008.89 1008.67 1008.64 1008.64 1008.65 1008.86 1008.78 1008.23 1008.44 1008.60 1008.65 1009.04 1010.08 1010.68
1016.32 1016.05 1015.80 1015.54 1015.26 1014.96 1014.63 1014.36 1014.16 1014.04 1013.86 1013.63 1013.48 1013.23 1012.74 1010.75 1009.24 1008.89 1009.10 1008.95 1008.55 1008.51 1008.78 1008.74 1008.95 1008.99 1008.96 1008.95 1008.73 1008.80 1009.28 1009.30 1009.18 1008.97 1008.91 1008.95 1009.22 1008.96 1008.34 1008.53 1008.71 1008.92 1009.42 1010.53 1011.11
1016.27 1016.01 1015.73 1015.40 1015.08 1014.75 1014.38 1013.98 1013.64 1013.59 1013.52 1013.38 1013.39 1013.16 1011.97 1009.62 1009.15 1008.98 1008.86 1008.75 1008.38 1008.15 1008.23 1008.27 1008.35 1008.68 1009.07 1009.34 1009.38 1009.64 1009.97 1010.28 1009.31 1009.19 1009.10 1009.39 1009.79 1009.25 1008.88 1008.74 1009.09 1009.20 1010.25 1010.90 1011.40
1016.27 1015.97 1015.69 1015.37 1014.98 1014.51 1014.04 1013.58 1013.17 1013.00 1012.87 1013.18 1013.30 1012.79 1011.36 1009.35 1009.05 1008.70 1008.54 1008.63 1008.48 1008.26 1008.27 1008.33 1008.61 1009.33 1009.54 1010.24 1010.98 1011.14 1011.17 1010.93 1010.27 1009.74 1009.94 1010.38 1010.58 1009.82 1009.37 1009.45 1009.72 1009.62 1010.68 1011.15 1011.62
1016.28 1015.94 1015.61 1015.26 1014.89 1014.45 1013.68 1013.10 1012.64 1012.63 1012.09 1012.50 1012.40 1012.46 1010.78 1009.40 1008.76 1008.44 1008.27 1008.44 1008.70 1008.73 1008.83 1009.01 1009.73 1010.28 1010.79 1011.15 1011.93 1011.81 1011.64 1011.25 1011.17 1011.19 1010.81 1011.21 1011.30 1010.81 1009.87 1009.64 1009.67 1010.13 1011.08 1011.70 1012.16
1016.28 1015.90 1015.58 1015.27 1014.90 1014.56 1013.59 1012.87 1013.11 1012.96 1012.25 1011.96 1011.59 1011.09 1010.14 1009.02 1008.51 1008.42 1008.34 1008.50 1008.74 1009.07 1009.63 1009.67 1010.61 1010.74 1010.79 1010.89 1010.86 1011.16 1011.60 1011.86 1011.62 1011.67 1011.46 1011.76 1011.59 1010.75 1010.07 1010.06 1009.74 1010.31 1011.19 1012.19 1012.69
1016.24 1015.79 1015.41 1015.15 1014.91 1014.69 1014.52 1013.99 1012.73 1012.33 1011.91 1010.99 1010.40 1010.23 1009.61 1008.91 1008.77 1008.59 1008.45 1008.93 1009.15 1009.57 1009.77 1010.32 1010.50 1010.25 1010.17 1010.36 1010.81 1011.55 1011.97 1012.51 1012.05 1011.66 1011.82 1012.06 1012.17 1012.26 1011.46 1011.30 1011.72 1011.89 1013.10 1013.51 1013.90
1016.21 1015.72 1015.17 1014.71 1014.62 1014.56 1014.16 1012.83 1011.32 1011.81 1011.93 1010.27 1009.43 1009.19 1008.86 1008.54 1008.63 1008.47 1008.53 1008.83 1009.27 1009.68 1009.98 1010.16 1009.96 1009.72 1009.95 1010.62 1011.09 1011.89 1012.36 1012.84 1013.09 1012.78 1012.88 1013.15 1013.75 1013.92 1014.01 1013.21 1013.45 1014.19 1014.77 1015.18 1015.25
1016.14 1015.67 1015.10 1014.47 1014.36 1014.29 1013.37 1011.80 1011.23 1011.43 1012.00 1010.35 1009.11 1008.25 1008.27 1008.44 1008.67 1008.34 1008.35 1008.94 1009.45 1010.06 1010.12 1010.27 1010.05 1009.85 1010.23 1010.83 1011.22 1012.00 1012.45 1012.90 1013.40 1014.12 1014.52 1014.53 1015.95 1015.93 1015.99 1015.74 1015.79 1016.28 1016.38 1016.72 1016.44
1015.98 1015.53 1015.05 1014.89 1014.56 1013.89 1012.32 1011.50 1011.13 1011.58 1011.81 1009.67 1008.63 1007.57 1008.02 1008.75 1008.84 1008.56 1008.35 1008.90 1009.63 1010.27 1010.75 1010.84 1010.37 1010.27 1010.54 1010.99 1011.24 1012.40 1012.76 1013.65 1014.02 1014.85 1015.62 1015.74 1016.43 1016.61 1016.62 1016.92 1017.32 1017.36 1017.25 1017.34 1017.17
1015.73 1015.28 1015.04 1014.59 1014.64 1012.91 1011.88 1011.53 1011.52 1012.43 1010.96 1009.51 1008.44 1008.19 1008.72 1008.80 1008.92 1008.81 1008.95 1009.18 1009.69 1010.35 1010.85 1010.93 1010.19 1010.20 1010.54 1011.05 1011.63 1012.53 1013.48 1014.46 1015.35 1016.11 1017.01 1016.80 1017.19 1017.63 1017.16 1017.09 1017.59 1017.69 1017.47 1017.46 1017.26
1015.34 1014.91 1014.82 1014.19 1013.40 1012.17 1011.97 1012.55 1012.97 1012.29 1010.24 1009.81 1009.10 1008.99 1009.00 1009.14 1009.14 1009.46 1009.71 1010.08 1010.90 1011.73 1012.38 1011.90 1011.64 1010.98 1011.04 1011.56 1012.23 1013.18 1015.09 1016.85 1017.66 1018.17 1018.23 1017.17 1017.27 1017.13 1016.79 1017.07 1017.34 1017.81 1018.01 1017.87 1017.75
1014.66 1014.34 1014.00 1013.23 1012.43 1012.62 1012.96 1013.52 1013.31 1011.92 1010.97 1010.08 1009.76 1009.42 1009.85 1009.34 1009.47 1009.80 1010.18 1010.98 1011.56 1012.30 1013.35 1013.68 1013.12 1012.51 1012.15 1012.35 1013.04 1014.12 1015.62 1017.55 1018.74 1019.49 1018.90 1017.79 1017.20 1016.62 1016.54 1017.01 1017.21 1017.61 1018.02 1018.15 1018.10
1014.34 1014.03 1013.73 1012.41 1012.19 1012.86 1013.88 1014.32 1013.36 1012.03 1011.44 1010.92 1010.37 1010.44 1010.30 1009.98 1009.77 1010.28 1010.85 1011.96 1012.67 1013.12 1013.94 1014.47 1014.01 1013.42 1013.02 1012.95 1013.43 1014.49 1015.73 1016.69 1018.38 1019.56 1019.51 1018.38 1017.59 1017.03 1016.91 1017.30 1017.74 1018.05 1018.25 1018.21 1018.23
1015.70 1014.78 1013.62 1011.70 1012.10 1013.50 1014.88 1014.62 1013.13 1012.05 1011.55 1011.34 1011.72 1011.84 1011.95 1011.63 1011.27 1011.29 1011.75 1012.95 1013.41 1013.69 1014.07 1015.21 1015.28 1014.49 1013.90 1013.78 1014.11 1014.78 1015.83 1017.27 1019.12 1020.42 1020.56 1019.30 1018.18 1017.29 1017.05 1017.31 1017.74 1018.05 1018.06 1018.11 1018.10
1015.93 1015.14 1012.74 1012.06 1012.57 1014.41 1015.54 1014.63 1013.11 1012.20 1011.72 1011.85 1012.21 1012.58 1012.79 1012.85 1012.68 1012.70 1013.34 1013.87 1013.92 1014.61 1014.89 1015.87 1016.51 1016.08 1015.27 1015.14 1015.41 1015.93 1016.77 1018.02 1019.44 1020.62 1021.04 1020.49 1019.14 1016.86 1016.63 1016.77 1017.59 1018.17 1018.45 1018.40 1018.02
1017.43 1016.08 1013.05 1012.63 1014.15 1015.44 1015.72 1014.89 1013.43 1012.58 1012.11 1012.22 1012.41 1012.92 1013.36 1013.55 1013.63 1013.72 1014.02 1014.33 1014.46 1014.84 1016.11 1017.06 1018.08 1018.37 1017.39 1015.94 1015.77 1016.52 1017.62 1018.61 1020.38 1021.04 1021.12 1020.69 1018.69 1016.95 1017.04 1017.31 1017.85 1018.25 1018.26 1018.21 1018.03
1019.30 1017.08 1013.93 1013.59 1016.07 1016.82 1016.01 1015.06 1014.04 1013.26 1012.99 1012.96 1013.22 1013.74 1013.94 1014.26 1014.57 1014.41 1014.65 1014.86 1015.13 1015.81 1016.75 1017.67 1019.36 1019.81 1018.50 1017.52 1016.99 1017.58 1018.02 1019.03 1020.00 1020.75 1020.94 1021.14 1019.48 1018.36 1017.94 1018.30 1018.59 1018.67 1018.62 1018.56 1018.55
1019.68 1018.58 1016.94 1016.77 1017.22 1017.38 1017.05 1016.00 1015.10 1013.90 1013.52 1013.55 1013.87 1014.11 1014.53 1014.95 1015.25 1015.52 1015.67 1016.01 1016.15 1016.86 1017.48 1018.16 1019.99 1020.58 1020.50 1019.99 1019.80 1019.24 1018.78 1018.82 1019.74 1020.66 1020.37 1020.26 1019.74 1019.60 1019.40 1019.35 1019.24 1019.16 1018.85 1018.81 1018.72
1020.24 1020.37 1019.79 1019.36 1018.46 1018.21 1017.50 1016.49 1015.60 1014.84 1014.06 1014.13 1014.63 1015.29 1015.42 1016.05 1016.41 1017.05 1017.05 1017.20 1017.55 1017.94 1018.50 1019.59 1020.80 1021.15 1020.97 1020.59 1020.00 1019.62 1019.41 1019.13 1019.30 1019.31 1019.80 1019.88 1020.08 1020.16 1019.73 1019.54 1019.35 1019.21 1019.09 1018.98 1018.92
1021.28 1021.45 1020.95 1020.36 1019.38 1018.65 1017.66 1016.88 1015.87 1015.23 1015.05 1015.18 1015.74 1016.21 1016.33 1017.25 1017.73 1018.00 1018.22 1018.27 1018.42 1018.88 1019.56 1020.43 1021.40 1021.75 1021.72 1020.92 1020.34 1019.75 1019.40 1018.86 1018.52 1018.45 1019.11 1019.63 1019.90 1019.81 1019.61 1019.35 1019.32 1019.30 1019.24 1019.25 1019.12
1021.92 1021.55 1021.70 1020.92 1020.07 1019.43 1018.44 1017.48 1016.06 1015.48 1015.62 1015.42 1015.95 1016.51 1017.26 1017.69 1017.88 1018.01 1018.13 1018.38 1018.71 1019.19 1020.22 1021.16 1022.29 1023.02 1022.67 1021.76 1020.69 1019.93 1019.16 1018.77 1018.71 1018.74 1018.98 1019.59 1019.85 1019.81 1019.75 1019.60 1019.45 1019.47 1019.52 1019.39 1019.13
Wind_Speed
9 8 8 8 8 8 9 9 8 8 8 9 9 10 11 12 14 2 5 10 6 4 2 5 3 4 3 3 3 4 4 1 3 2 6 5 5 6 5 7 11 6 6 4 1
9 9 9 8 8 8 8 8 8 8 8 9 10 11 10 10 3 5 11 8 5 1 4 4 5 7 4 3 2 6 4 4 2 1 3 5 5 2 6 5 5 6 5 8 11
9 9 9 9 9 8 8 8 8 8 8 9 11 12 10 7 4 6 4 7 6 6 2 1 4 3 4 2 4 3 6 4 1 3 4 4 7 6 6 4 3 7 5 6 12
10 9 9 9 9 9 9 9 9 8 8 9 11 13 12 1 1 6 4 8 5 2 3 2 4 6 3 3 6 4 6 5 3 2 3 2 2 4 2 5 9 9 7 7 13
10 9 10 10 9 9 10 10 10 10 9 9 11 12 1 5 7 9 8 6 3 1 5 2 3 1 4 2 4 4 2 5 5 2 3 3 2 3 5 7 8 8 8 11 11
10 9 9 9 9 10 10 11 11 11 10 10 11 12 2 2 5 8 7 7 4 3 4 5 3 7 4 2 6 2 3 4 3 4 4 2 2 1 7 7 5 6 6 10 14
11 10 10 9 9 10 11 11 10 9 8 8 8 3 2 11 3 6 3 4 4 2 4 2 2 6 2 7 3 3 3 5 3 5 4 4 8 4 9 8 9 8 5 10 8
12 11 10 10 10 11 12 13 13 10 8 6 1 0 6 6 6 5 2 6 6 4 2 5 5 1 4 2 8 3 5 4 7 6 2 7 8 5 10 8 8 7 9 9 6
13 11 11 10 10 11 13 13 13 10 9 6 1 2 9 10 1 7 2 2 4 5 4 4 4 3 8 4 6 7 2 3 8 2 3 5 5 8 7 4 8 9 11 10 7
14 12 11 11 11 13 16 8 5 9 1 4 2 3 4 3 4 2 3 4 2 6 6 2 5 3 4 6 3 4 2 4 4 7 6 6 6 9 9 6 8 5 12 7 7
16 13 11 11 11 11 10 6 7 5 3 6 5 4 7 3 1 3 2 3 2 2 2 2 6 3 6 7 5 3 4 4 3 3 2 3 6 10 11 10 10 7 12 8 8
18 15 12 10 9 8 1 1 6 5 7 8 13 7 8 5 3 5 2 2 2 3 4 6 3 8 4 2 3 7 6 6 5 6 5 9 9 11 18 9 14 9 10 9 9
18 16 14 12 8 0 2 7 6 2 1 9 6 4 6 3 3 5 2 2 2 5 3 4 5 3 3 6 7 4 7 2 2 7 6 4 8 16 14 23 21 19 19 16 15
19 15 13 19 3 4 5 8 6 4 5 6 2 6 3 2 3 4 1 1 4 4 6 1 5 2 7 5 3 4 2 2 5 6 2 5 4 7 9 15 17 14 13 9 9
20 15 12 3 3 2 7 7 3 7 3 2 4 4 5 5 3 2 2 3 2 3 5 7 2 1 5 2 3 1 4 3 3 2 4 7 6 6 5 8 7 7 7 6 6
20 15 11 4 0 8 9 6 6 6 3 3 5 5 4 4 3 4 1 2 2 2 5 5 5 5 3 5 7 1 7 8 6 4 4 2 4 5 2 4 2 1 5 6 6
21 13 4 2 4 5 6 6 6 3 6 1 5 5 6 7 5 7 5 0 1 3 5 7 9 6 6 5 6 9 8 5 6 6 5 6 3 7 6 4 7 7 5 5 6
25 11 6 4 6 7 5 7 2 5 4 3 4 2 6 4 5 4 4 2 7 4 4 4 6 8 7 2 2 2 7 6 3 3 6 6 4 5 5 7 7 8 7 5 4
21 2 3 6 4 4 7 4 5 2 4 6 8 6 6 9 5 3 5 3 5 3 7 3 4 3 6 2 4 3 1 5 4 1 2 3 2 5 6 6 7 6 5 5 4
3 3 4 4 5 7 6 4 2 3 2 4 4 6 6 7 7 3 4 4 3 4 4 1 3 2 3 4 4 3 3 4 4 1 3 6 2 6 2 6 6 7 6 4 4
4 4 6 4 6 7 3 5 2 2 4 4 1 3 3 4 4 6 5 5 3 3 8 3 4 7 5 1 2 7 5 4 4 5 4 2 7 6 3 6 7 5 4 5 2
3 3 4 4 6 2 2 5 8 2 6 5 3 4 2 3 4 5 2 2 1 2 4 2 4 3 7 12 9 6 2 5 6 6 3 4 8 6 2 7 7 4 2 0 2
2 4 4 7 4 4 7 5 5 7 4 3 4 4 3 3 4 1 2 2 5 4 6 4 2 4 11 9 9 5 3 2 3 3 5 4 8 4 8 7 4 3 5 5 6
3 5 6 6 2 3 5 5 7 7 4 4 2 5 3 4 5 5 2 6 6 4 8 8 3 7 8 3 3 7 13 12 2 1 6 7 4 8 8 6 5 5 5 4 5
5 2 1 5 5 4 2 3 5 4 3 5 4 7 1 2 4 5 7 2 6 3 4 5 3 3 3 5 6 10 10 11 7 9 6 3 6 1 1 2 2 3 2 5 6
3 4 6 4 4 6 3 3 8 1 3 1 5 7 8 5 1 1 1 1 1 0 2 2 1 1 4 7 6 8 8 7 6 0 6 7 4 1 2 3 6 3 4 4 6
4 3 4 5 5 3 2 7 0 3 4 5 5 5 3 4 4 6 8 6 6 7 3 3 4 3 6 6 8 5 3 6 3 6 3 2 2 4 3 5 2 2 3 6 6
Wind_Direction
354 352 349 347 342 339 337 335 333 335 338 334 327 320 322 325 311 138 261 222 188 152 216 304 335 338 110 271 222 104 58 60 289 30 276 316 76 351 64 72 62 45 111 161 59
351 348 346 343 338 335 330 328 329 334 340 335 323 318 320 332 325 271 243 248 231 192 353 3 317 13 325 249 268 108 110 248 227 249 339 349 77 37 73 59 45 64 40 51 48
349 345 341 338 334 328 324 323 325 331 338 328 320 314 317 328 342 262 211 227 241 152 148 308 272 209 201 159 236 153 161 210 261 68 48 347 16 354 122 55 142 123 99 68 71
347 343 339 335 330 324 321 320 320 328 331 326 321 315 316 187 72 269 179 231 247 169 306 323 20 352 319 237 217 126 133 168 222 86 78 52 297 339 48 168 171 152 160 117 102
349 343 337 333 327 322 320 320 324 330 332 328 320 322 47 13 253 263 266 258 282 275 245 137 329 239 245 250 72 85 177 128 171 186 155 158 283 249 287 197 168 153 137 115 117
350 343 335 330 324 321 320 320 322 326 330 329 329 320 19 327 241 260 234 321 255 175 322 136 236 243 290 357 99 124 104 173 202 214 251 206 241 299 264 173 184 158 163 124 129
351 344 339 331 325 321 318 313 308 308 309 311 320 340 354 237 241 240 278 266 257 335 349 310 203 57 293 355 335 86 29 343 236 216 222 137 328 238 279 181 189 204 134 114 115
353 347 340 334 330 324 315 309 302 298 283 271 69 47 252 250 270 315 279 298 288 295 346 313 4 62 80 296 11 1 49 340 280 193 243 94 271 306 342 145 209 250 102 130 134
354 348 342 337 330 320 309 298 291 298 269 197 176 102 280 311 223 251 193 304 295 292 286 300 36 38 6 57 16 10 261 275 360 58 75 74 277 307 311 173 235 252 136 148 129
354 349 341 335 330 327 308 266 291 323 331 173 267 1 287 237 214 218 270 288 298 327 353 98 44 41 28 69 210 268 318 316 53 341 57 20 286 278 281 319 297 93 141 142 123
351 346 341 333 331 340 351 360 16 359 53 206 212 227 299 281 87 271 289 309 301 44 250 282 75 286 219 181 188 265 31 10 125 313 139 344 293 301 312 331 307 151 139 129 114
348 344 340 329 319 323 334 19 216 197 306 239 254 245 256 228 332 284 176 24 327 289 337 30 204 222 195 84 48 70 74 352 309 330 54 359 327 347 345 9 22 57 60 65 55
345 341 336 321 319 357 197 231 254 45 39 295 222 195 228 146 285 210 120 344 318 325 16 148 202 157 110 36 71 59 97 43 284 334 18 25 8 21 12 53 51 43 76 67 74
341 338 333 319 52 321 267 291 261 141 53 276 173 256 166 167 298 192 122 127 349 356 338 68 1 51 69 80 106 38 218 85 358 41 281 55 271 13 356 45 49 46 52 44 52
337 334 328 298 253 322 251 323 345 57 19 197 223 203 149 145 164 275 144 47 255 271 66 266 345 114 80 144 79 203 22 5 253 276 64 337 77 283 342 26 17 35 55 55 46
335 330 327 74 313 243 302 309 53 47 281 238 155 179 129 229 213 201 142 46 276 5 5 266 251 159 139 85 91 143 23 25 26 90 60 234 141 268 219 203 169 21 55 57 48
330 320 306 342 240 323 329 40 42 111 302 147 208 180 208 209 226 189 176 173 127 58 354 353 8 1 52 50 19 65 52 356 5 10 228 269 33 224 204 192 162 140 101 81 54
324 312 207 222 264 356 43 49 92 272 340 1 4 180 196 214 199 166 157 108 33 80 77 68 342 11 327 86 168 103 130 150 247 224 250 308 235 249 157 154 158 145 144 109 103
319 347 335 262 243 82 67 64 220 3 355 358 348 4 344 336 154 141 183 86 47 43 118 72 279 307 34 26 109 313 353 187 146 315 80 237 104 325 151 158 138 140 131 108 81
8 354 281 254 118 63 72 238 268 46 8 23 55 43 23 333 18 349 72 353 77 48 108 200 324 329 326 359 30 93 245 2 7 264 275 300 238 239 227 204 138 155 148 140 119
32 33 260 69 63 52 135 237 300 97 74 64 56 341 325 356 14 360 27 9 77 78 71 66 98 288 18 359 165 356 340 53 115 139 177 253 264 224 293 202 149 149 170 193 139
9 37 309 43 46 44 19 298 312 55 38 35 64 350 38 34 13 49 120 102 28 99 72 23 123 281 262 288 262 180 65 108 104 293 238 162 269 310 113 99 111 123 178 20 318
14 270 326 74 77 345 310 321 338 6 35 36 4 60 38 1 16 3 141 142 48 78 155 167 31 18 341 347 8 31 29 80 182 87 206 154 265 54 84 93 101 92 13 355 35
38 5 332 36 119 106 7 321 341 313 328 75 13 4 12 353 22 340 65 32 48 63 71 78 114 154 198 225 245 305 319 325 106 110 282 232 359 357 32 63 40 10 356 36 13
31 318 260 317 332 336 228 254 292 327 348 38 39 26 2 69 23 48 13 61 33 86 49 93 162 195 234 282 291 292 300 298 278 239 180 313 123 204 68 58 337 341 51 29 6
68 33 346 292 307 350 355 295 271 39 55 8 104 67 53 99 105 151 63 66 325 69 102 33 275 74 275 254 287 295 290 295 268 303 106 136 118 230 319 333 350 19 30 341 291
323 347 103 280 326 6 292 307 314 139 39 78 136 97 74 178 213 217 200 199 199 164 151 106 111 75 277 330 319 9 233 310 27 15 96 141 214 249 299 334 312 214 293 286 313